Weather History for Joliet, IL

Change the Weather History Date:

Sunday, December 16, 2012

  Actual Average (KLOT) Record (KLOT)
Temperature  
Mean Temperature 43 °F 27 °F  
Max Temperature 50 °F 34 °F 56 °F (2006)
Min Temperature 36 °F 20 °F 5 °F (2009)
Degree Days  
Heating Degree Days 22 38  
Month to date heating degree days 568  
Since 1 July heating degree days 1787  
Cooling Degree Days 0 0  
Month to date cooling degree days 0  
Year to date cooling degree days 862  
Moisture  
Dew Point 39 °F    
Average Humidity 88    
Maximum Humidity 95    
Minimum Humidity 84    
Precipitation  
Precipitation 0.02 in 0.07 in 0.34 in (1994)
Month to date precipitation 1.18  
Year to date precipitation 39.00  
Snow  
Snow 0.00 in 0.40 in 3.10 in (2008)
Month to date snowfall 4.2  
Since 1 July snowfall 5.1  
Snow Depth -    
Sea Level Pressure  
Sea Level Pressure 29.66 in    
Wind  
Wind Speed 7 mph (SW)    
Max Wind Speed 13 mph    
Max Gust Speed 17 mph    
Visibility 8 miles    
Events      
T = Trace of Precipitation, MM = Missing Value Source: NWS Daily Summary

Daily Weather History Graph

Daily Weather History Graph

Search for Another Location

Airport:

Trip Planner

Search our weather history database for the weather conditions in past years. The results will help you decide how hot, cold, wet, or windy it might be!

Date:

Astronomy

Dec. 16, 2012 Rise Set
Actual Time 7:13 AM CST 4:24 PM CST
Civil Twilight 6:41 AM CST 4:55 PM CST
Nautical Twilight 6:06 AM CST 5:30 PM CST
Astronomical Twilight 5:33 AM CST 6:04 PM CST
Moon 9:44 AM CST (12/16) 8:40 PM CST (12/16)
Length of Visible Light 10h 13m
Length of Day
9h 10m
Waxing Crescent, 16% of the Moon is Illuminated
Dec 16
Waxing Crescent
Dec 19
First Quarter
Dec 28
Full
Jan 4
Last Quarter
Jan 11
New

Hourly Weather History & Observations

Time (CST) Temp. Windchill Dew Point Humidity Pressure Visibility Wind Dir Wind Speed Gust Speed Precip Events Conditions
12:15 AM 49.6 °F - 45.5 °F 86% 29.60 in 10.0 mi SSW 8.1 mph 17.3 mph N/A   Overcast
12:35 AM 50.0 °F - 46.4 °F 87% 29.60 in 10.0 mi SSW 6.9 mph - N/A   Overcast
12:55 AM 49.1 °F - 45.0 °F 86% 29.59 in 10.0 mi SW 8.1 mph - N/A   Overcast
1:15 AM 48.9 °F - 45.1 °F 87% 29.59 in 10.0 mi South 5.8 mph - N/A   Overcast
1:35 AM 48.2 °F - 45.1 °F 89% 29.59 in 10.0 mi South 5.8 mph - N/A   Overcast
1:55 AM 48.2 °F - 45.1 °F 89% 29.60 in 10.0 mi South 5.8 mph - N/A   Overcast
2:15 AM 47.8 °F - 45.3 °F 91% 29.60 in 10.0 mi South 6.9 mph - N/A   Overcast
2:35 AM 48.2 °F - 46.4 °F 93% 29.60 in 10.0 mi South 6.9 mph - N/A   Overcast
2:55 AM 48.2 °F - 45.3 °F 90% 29.60 in 10.0 mi SSW 6.9 mph - N/A   Overcast
3:15 AM 48.2 °F - 45.1 °F 89% 29.60 in 10.0 mi SSW 5.8 mph - N/A   Overcast
3:35 AM 47.7 °F - 45.5 °F 92% 29.59 in 10.0 mi SSW 5.8 mph - N/A   Overcast
3:55 AM 47.7 °F - 45.1 °F 91% 29.59 in 10.0 mi SSW 9.2 mph - N/A   Overcast
4:15 AM 47.3 °F - 45.0 °F 92% 29.60 in 10.0 mi SSW 6.9 mph - N/A   Overcast
4:35 AM 47.3 °F - 44.6 °F 90% 29.60 in 10.0 mi SSW 9.2 mph - N/A   Overcast
4:55 AM 47.3 °F - 44.6 °F 90% 29.59 in 10.0 mi SW 8.1 mph - N/A   Overcast
5:15 AM 47.1 °F - 44.8 °F 92% 29.60 in 10.0 mi SSW 5.8 mph - N/A   Overcast
5:35 AM 47.3 °F - 44.8 °F 91% 29.59 in 7.0 mi SSW 4.6 mph - N/A   Overcast
5:55 AM 46.9 °F - 44.6 °F 92% 29.60 in 10.0 mi South 4.6 mph - N/A   Overcast
6:15 AM 47.3 °F - 44.6 °F 90% 29.61 in 10.0 mi SSW 8.1 mph - N/A   Overcast
6:35 AM 46.6 °F - 44.8 °F 93% 29.61 in 3.0 mi SW 8.1 mph - 0.01 in   Heavy Drizzle
6:55 AM 46.4 °F 42.4 °F 44.6 °F 93% 29.62 in 2.5 mi WSW 8.1 mph - N/A   Drizzle
7:15 AM 45.0 °F 41.2 °F 43.7 °F 95% 29.63 in 2.5 mi WSW 6.9 mph - N/A   Drizzle
7:35 AM 44.6 °F 41.4 °F 43.2 °F 95% 29.63 in 4.0 mi WSW 5.8 mph - N/A   Overcast
7:55 AM 44.2 °F 40.3 °F 42.8 °F 95% 29.64 in 5.0 mi WSW 6.9 mph - 0.01 in   Overcast
8:15 AM 44.2 °F 39.7 °F 42.8 °F 95% 29.64 in 5.0 mi WSW 8.1 mph - N/A   Overcast
8:35 AM 43.9 °F 41.3 °F 41.9 °F 93% 29.65 in 5.0 mi WSW 4.6 mph - N/A   Overcast
8:55 AM 43.2 °F 37.9 °F 40.5 °F 90% 29.65 in 7.0 mi WSW 9.2 mph - N/A   Overcast
9:15 AM 43.2 °F 37.9 °F 40.5 °F 90% 29.66 in 5.0 mi WSW 9.2 mph - N/A   Mostly Cloudy
9:35 AM 43.0 °F 38.8 °F 40.3 °F 90% 29.66 in 5.0 mi West 6.9 mph - N/A   Mostly Cloudy
9:55 AM 43.2 °F 39.0 °F 40.1 °F 89% 29.66 in 5.0 mi WSW 6.9 mph - N/A   Mostly Cloudy
10:15 AM 42.4 °F 36.5 °F 39.7 °F 90% 29.67 in 5.0 mi WSW 10.4 mph 17.3 mph N/A   Overcast
10:35 AM 41.9 °F 36.9 °F 39.2 °F 90% 29.67 in 5.0 mi WSW 8.1 mph 16.1 mph N/A   Overcast
10:55 AM 41.9 °F 35.9 °F 38.7 °F 88% 29.67 in 7.0 mi SW 10.4 mph - N/A   Overcast
11:15 AM 41.5 °F 34.6 °F 38.3 °F 88% 29.66 in 7.0 mi WSW 12.7 mph 17.3 mph N/A   Overcast
11:35 AM 41.7 °F 35.6 °F 38.5 °F 88% 29.66 in 7.0 mi WSW 10.4 mph - N/A   Overcast
11:55 AM 41.7 °F 36.1 °F 38.3 °F 88% 29.65 in 7.0 mi SW 9.2 mph - N/A   Overcast
12:15 PM 41.5 °F 35.4 °F 37.8 °F 86% 29.65 in 7.0 mi WSW 10.4 mph - N/A   Overcast
12:35 PM 41.5 °F 35.9 °F 37.4 °F 85% 29.64 in 10.0 mi WSW 9.2 mph - N/A   Overcast
12:55 PM 41.0 °F 35.8 °F 37.2 °F 86% 29.64 in 10.0 mi WSW 8.1 mph 16.1 mph N/A   Overcast
1:15 PM 41.0 °F 35.8 °F 36.9 °F 85% 29.64 in 10.0 mi WSW 8.1 mph - N/A   Overcast
1:35 PM 41.0 °F 34.7 °F 36.9 °F 85% 29.64 in 10.0 mi WSW 10.4 mph - N/A   Overcast
1:55 PM 40.6 °F 36.0 °F 36.7 °F 86% 29.64 in 10.0 mi WSW 6.9 mph - N/A   Overcast
2:15 PM 40.6 °F 34.3 °F 36.5 °F 85% 29.64 in 10.0 mi WSW 10.4 mph - N/A   Overcast
2:35 PM 40.5 °F 36.5 °F 36.7 °F 86% 29.63 in 7.0 mi West 5.8 mph - N/A   Overcast
2:55 PM 40.1 °F 34.7 °F 36.5 °F 87% 29.62 in 7.0 mi West 8.1 mph - N/A   Overcast
3:15 PM 39.9 °F 35.8 °F 36.5 °F 88% 29.65 in 7.0 mi West 5.8 mph - N/A   Overcast
3:35 PM 39.6 °F 34.7 °F 36.5 °F 89% 29.67 in 5.0 mi WSW 6.9 mph - N/A   Overcast
3:55 PM 39.2 °F 35.0 °F 35.1 °F 85% 29.69 in 7.0 mi WSW 5.8 mph - N/A   Overcast
4:15 PM 38.7 °F 34.3 °F 34.5 °F 85% 29.68 in 10.0 mi WSW 5.8 mph - N/A   Overcast
4:35 PM 38.5 °F 35.0 °F 34.0 °F 84% 29.69 in 10.0 mi West 4.6 mph - N/A   Overcast
4:55 PM 38.5 °F 35.0 °F 34.2 °F 84% 29.69 in 10.0 mi WSW 4.6 mph - N/A   Overcast
5:15 PM 38.3 °F 34.8 °F 34.0 °F 84% 29.69 in 10.0 mi West 4.6 mph - N/A   Overcast
5:35 PM 37.9 °F 33.5 °F 34.0 °F 86% 29.69 in 7.0 mi WSW 5.8 mph - N/A   Overcast
5:55 PM 37.8 °F 32.5 °F 33.8 °F 86% 29.70 in 10.0 mi WSW 6.9 mph - N/A   Overcast
6:15 PM 37.8 °F 32.5 °F 33.4 °F 84% 29.71 in 10.0 mi West 6.9 mph - N/A   Overcast
6:35 PM 37.8 °F 33.3 °F 33.8 °F 86% 29.72 in 7.0 mi WSW 5.8 mph - N/A   Overcast
6:55 PM 37.8 °F 32.5 °F 34.0 °F 86% 29.72 in 7.0 mi West 6.9 mph - N/A   Overcast
7:15 PM 37.4 °F 33.8 °F 33.8 °F 87% 29.73 in 7.0 mi WSW 4.6 mph - N/A   Overcast
7:35 PM 37.4 °F 34.9 °F 33.8 °F 87% 29.73 in 7.0 mi WSW 3.5 mph - N/A   Overcast
7:55 PM 37.4 °F 32.8 °F 33.8 °F 87% 29.73 in 5.0 mi West 5.8 mph - N/A   Overcast
8:15 PM 37.4 °F 32.8 °F 33.8 °F 87% 29.73 in 5.0 mi WSW 5.8 mph - N/A   Overcast
8:35 PM 37.4 °F 33.8 °F 34.0 °F 87% 29.73 in 5.0 mi WSW 4.6 mph - N/A   Overcast
8:55 PM 37.2 °F 31.2 °F 33.3 °F 86% 29.72 in 7.0 mi West 8.1 mph - N/A   Overcast
9:15 PM 37.0 °F 31.6 °F 33.3 °F 86% 29.72 in 7.0 mi West 6.9 mph - N/A   Overcast
9:35 PM 36.9 °F 34.3 °F 33.3 °F 87% 29.73 in 5.0 mi West 3.5 mph - N/A   Overcast
9:55 PM 36.9 °F 32.2 °F 33.3 °F 87% 29.72 in 7.0 mi West 5.8 mph - N/A   Overcast
10:15 PM 37.0 °F 33.3 °F 32.9 °F 85% 29.73 in 7.0 mi WSW 4.6 mph - N/A   Overcast
10:35 PM 37.0 °F 34.5 °F 33.1 °F 86% 29.73 in 7.0 mi WSW 3.5 mph - N/A   Overcast
10:55 PM 37.0 °F 34.5 °F 33.1 °F 86% 29.74 in 7.0 mi SW 3.5 mph - N/A   Overcast
11:15 PM 37.4 °F 34.9 °F 33.1 °F 84% 29.74 in 7.0 mi SSW 3.5 mph - N/A   Overcast
11:35 PM 37.4 °F 34.9 °F 33.8 °F 87% 29.74 in 7.0 mi SW 3.5 mph - N/A   Overcast
11:55 PM 37.4 °F 34.9 °F 33.8 °F 87% 29.74 in 7.0 mi SW 3.5 mph - N/A   Overcast